TimeMST,TemperatureF,Dew PointF,Humidity,Sea Level PressureIn,VisibilityMPH,Wind Direction,Wind SpeedMPH,Gust SpeedMPH,PrecipitationIn,Events,Conditions,WindDirDegrees,DateUTC
12:15 AM,37.4,21.2,52,30.32,10.0,SE,3.5,-,N/A,,Clear,130,2013-03-15 07:15:00
12:35 AM,39.2,23.0,52,30.33,10.0,South,4.6,-,N/A,,Clear,180,2013-03-15 07:35:00
12:55 AM,39.2,24.8,56,30.33,10.0,South,5.8,-,N/A,,Clear,180,2013-03-15 07:55:00
1:15 AM,39.2,23.0,52,30.32,10.0,SSE,4.6,-,N/A,,Clear,150,2013-03-15 08:15:00
1:35 AM,39.2,23.0,52,30.32,10.0,SSE,4.6,-,N/A,,Clear,150,2013-03-15 08:35:00
1:55 AM,39.2,21.2,49,30.31,10.0,SE,3.5,-,N/A,,Clear,130,2013-03-15 08:55:00
2:15 AM,37.4,23.0,56,30.31,10.0,SSE,3.5,-,N/A,,Clear,160,2013-03-15 09:15:00
2:35 AM,39.2,23.0,52,30.29,10.0,Calm,Calm,-,N/A,,Clear,0,2013-03-15 09:35:00
2:55 AM,37.4,23.0,56,30.29,10.0,South,3.5,-,N/A,,Clear,180,2013-03-15 09:55:00
3:15 AM,35.6,23.0,60,30.29,10.0,SSE,4.6,-,N/A,,Clear,160,2013-03-15 10:15:00
3:35 AM,37.4,23.0,56,30.28,10.0,South,4.6,-,N/A,,Clear,190,2013-03-15 10:35:00
3:55 AM,37.4,23.0,56,30.28,10.0,SSE,4.6,-,N/A,,Clear,150,2013-03-15 10:55:00
4:35 AM,37.4,23.0,56,30.28,10.0,South,5.8,-,N/A,,Clear,190,2013-03-15 11:35:00
4:55 AM,37.4,23.0,56,30.28,10.0,South,3.5,-,N/A,,Clear,170,2013-03-15 11:55:00
5:15 AM,37.4,23.0,56,30.27,10.0,SE,4.6,-,N/A,,Clear,140,2013-03-15 12:15:00
5:35 AM,37.4,23.0,56,30.27,10.0,South,4.6,-,N/A,,Clear,180,2013-03-15 12:35:00
5:55 AM,37.4,23.0,56,30.27,10.0,South,4.6,-,N/A,,Clear,180,2013-03-15 12:55:00
6:15 AM,37.4,23.0,56,30.27,10.0,South,4.6,-,N/A,,Clear,180,2013-03-15 13:15:00
6:35 AM,35.6,23.0,60,30.26,10.0,SSW,3.5,-,N/A,,Clear,200,2013-03-15 13:35:00
6:55 AM,37.4,23.0,56,30.27,10.0,South,3.5,-,N/A,,Clear,180,2013-03-15 13:55:00
7:15 AM,39.2,26.6,61,30.27,10.0,South,4.6,-,N/A,,Clear,190,2013-03-15 14:15:00
7:35 AM,44.6,26.6,49,30.27,10.0,SSW,3.5,-,N/A,,Clear,200,2013-03-15 14:35:00
8:55 AM,62.6,26.6,26,30.27,10.0,South,10.4,-,N/A,,Clear,190,2013-03-15 15:55:00
9:15 AM,64.4,24.8,22,30.27,10.0,South,12.7,-,N/A,,Clear,190,2013-03-15 16:15:00
9:35 AM,66.2,24.8,21,30.27,10.0,SSW,12.7,-,N/A,,Clear,200,2013-03-15 16:35:00
9:55 AM,66.2,24.8,21,30.27,10.0,SSW,11.5,-,N/A,,Clear,210,2013-03-15 16:55:00
10:15 AM,66.2,23.0,19,30.26,10.0,SW,12.7,-,N/A,,Clear,220,2013-03-15 17:15:00
10:35 AM,66.2,23.0,19,30.26,10.0,SSW,16.1,-,N/A,,Clear,200,2013-03-15 17:35:00
10:55 AM,68.0,23.0,18,30.25,10.0,SW,13.8,17.3,N/A,,Clear,220,2013-03-15 17:55:00
11:15 AM,68.0,17.6,15,30.25,10.0,SSW,17.3,21.9,N/A,,Clear,210,2013-03-15 18:15:00
11:35 AM,69.8,15.8,13,30.25,10.0,SSW,15.0,20.7,N/A,,Clear,210,2013-03-15 18:35:00
11:55 AM,69.8,15.8,13,30.24,10.0,SSW,18.4,23.0,N/A,,Clear,210,2013-03-15 18:55:00
12:15 PM,69.8,14.0,12,30.23,10.0,SW,19.6,26.5,N/A,,Clear,230,2013-03-15 19:15:00
12:35 PM,71.6,14.0,11,30.22,10.0,SSW,19.6,27.6,N/A,,Clear,210,2013-03-15 19:35:00
12:55 PM,71.6,14.0,11,30.21,10.0,SSW,18.4,29.9,N/A,,Clear,210,2013-03-15 19:55:00
1:15 PM,71.6,14.0,11,30.20,10.0,SSW,25.3,29.9,N/A,,Clear,200,2013-03-15 20:15:00
1:35 PM,71.6,17.6,13,30.19,10.0,SW,19.6,31.1,N/A,,Clear,220,2013-03-15 20:35:00
1:55 PM,71.6,15.8,12,30.19,10.0,SW,21.9,28.8,N/A,,Clear,220,2013-03-15 20:55:00
2:15 PM,69.8,14.0,12,30.19,10.0,SSW,17.3,27.6,N/A,,Clear,200,2013-03-15 21:15:00
2:35 PM,69.8,12.2,11,30.18,10.0,SSW,17.3,24.2,N/A,,Clear,200,2013-03-15 21:35:00
2:55 PM,69.8,12.2,11,30.18,10.0,SW,16.1,24.2,N/A,,Clear,230,2013-03-15 21:55:00
3:15 PM,68.0,10.4,11,30.17,10.0,SW,19.6,26.5,N/A,,Clear,220,2013-03-15 22:15:00
3:35 PM,68.0,12.2,12,30.17,10.0,SSW,15.0,20.7,N/A,,Clear,210,2013-03-15 22:35:00
3:55 PM,68.0,10.4,11,30.17,10.0,SW,17.3,21.9,N/A,,Clear,220,2013-03-15 22:55:00
4:15 PM,69.8,10.4,10,30.16,10.0,SW,13.8,20.7,N/A,,Clear,220,2013-03-15 23:15:00
4:35 PM,68.0,14.0,12,30.16,10.0,South,16.1,21.9,N/A,,Clear,190,2013-03-15 23:35:00
4:55 PM,66.2,15.8,14,30.16,10.0,SSW,15.0,24.2,N/A,,Clear,210,2013-03-15 23:55:00
5:15 PM,66.2,17.6,15,30.16,10.0,SSW,15.0,-,N/A,,Clear,210,2013-03-16 00:15:00
5:35 PM,66.2,17.6,15,30.15,10.0,SSW,12.7,-,N/A,,Clear,210,2013-03-16 00:35:00
5:55 PM,62.6,19.4,19,30.15,10.0,SSW,13.8,-,N/A,,Clear,210,2013-03-16 00:55:00
6:15 PM,60.8,19.4,20,30.15,10.0,South,11.5,-,N/A,,Clear,190,2013-03-16 01:15:00
6:35 PM,59.0,19.4,22,30.14,10.0,South,10.4,-,N/A,,Clear,190,2013-03-16 01:35:00
6:55 PM,57.2,19.4,23,30.14,10.0,South,9.2,-,N/A,,Clear,180,2013-03-16 01:55:00
7:15 PM,55.4,19.4,25,30.14,10.0,South,8.1,-,N/A,,Clear,180,2013-03-16 02:15:00
7:35 PM,53.6,19.4,26,30.14,10.0,South,11.5,-,N/A,,Clear,190,2013-03-16 02:35:00
7:55 PM,55.4,19.4,25,30.14,10.0,South,11.5,-,N/A,,Clear,190,2013-03-16 02:55:00
8:15 PM,51.8,19.4,28,30.14,10.0,South,9.2,-,N/A,,Clear,180,2013-03-16 03:15:00
8:35 PM,50.0,19.4,30,30.14,10.0,South,10.4,-,N/A,,Clear,170,2013-03-16 03:35:00
8:55 PM,50.0,19.4,30,30.14,10.0,South,9.2,-,N/A,,Clear,180,2013-03-16 03:55:00
9:15 PM,50.0,19.4,30,30.14,10.0,South,9.2,-,N/A,,Clear,180,2013-03-16 04:15:00
9:35 PM,50.0,19.4,30,30.14,10.0,South,10.4,-,N/A,,Clear,180,2013-03-16 04:35:00
9:55 PM,50.0,19.4,30,30.14,10.0,South,10.4,-,N/A,,Clear,180,2013-03-16 04:55:00
10:15 PM,50.0,19.4,30,30.14,10.0,South,9.2,-,N/A,,Clear,180,2013-03-16 05:15:00
10:35 PM,48.2,19.4,32,30.15,10.0,SSW,6.9,-,N/A,,Clear,200,2013-03-16 05:35:00
10:55 PM,46.4,19.4,34,30.14,10.0,SSW,11.5,-,N/A,,Clear,200,2013-03-16 05:55:00
11:15 PM,46.4,19.4,34,30.13,10.0,SSW,10.4,-,N/A,,Clear,200,2013-03-16 06:15:00
11:35 PM,48.2,21.2,34,30.13,10.0,South,12.7,-,N/A,,Clear,190,2013-03-16 06:35:00
11:55 PM,48.2,21.2,34,30.13,10.0,South,13.8,-,N/A,,Clear,180,2013-03-16 06:55:00